Weather in Wuhai

China     39°40′49″N   106°49′17″E
temp.,
°C
wind,
m/s
gust,
m/s
humid.,
%
clouds,
%
prec.,
mm/h
press.,
hPa
HPBL,
m
7 may, fri
fri723:00+10ne2290 0.0 101911
02:00+9ssw33100 0.0 101813
05:00+8sse44100 0.0 101823
08:00+11s46123 0.0 1016251
11:00+17ssw5611100 0.0 1014775
14:00+21wsw4696 0.0 10091459
17:00+24w7980 0.0 10062843
20:00+21wsw33105 0.0 100518
8 may, sat
sat823:00+19sse22125 0.0 100511
02:00+17s331344 0.0 100416
05:00+14ssw221782 0.0 100412
08:00+17s12135 0.0 1006138
11:00+24wnw46916 0.0 10051067
14:00+28nw71075 0.0 10023003
17:00+29nnw587100 0.0 10003146
20:00+25e22105 0.0 99911
9 may, sun
sun923:00+23sse331197 0.0 100015
02:00+21sse561371 0.0 99944
05:00+19s331650 0.0 99913
08:00+22wsw491210 0.0 1000428
11:00+26wnw8101456 0.0 10001142
14:00+27wnw91111100 0.0 10001614
17:00+27nw8101250 0.0 9991826
20:00+22ne101222100 0.0 1002570
10 may, mon
mon1023:00+17ne9123825 0.0 1007498
02:00+16ne3539100 0.0 1008115
05:00+15ene3335100 0.0 100943
08:00+16e1329100 0.0 1011334
11:00+18sse1128100 0.0 10111288
14:00+22nw4424100 0.0 10091654
17:00+23nw371991 0.0 10072271
20:00+21sse11224 0.0 100611
11 may, tue
tue1123:00+20sse56230 0.0 100759
02:00+18sse610310 0.0 1007140
05:00+17sse611330 0.0 1006138
08:00+20s68281 0.0 1006336
11:00+26s56190 0.0 10041052
14:00+29sw25120 0.0 10013333
17:00+30sw24110 0.0 9983751
20:00+27s33141 0.0 99833